User: anonymous   Login
Location: Copper Breaks State Park
(34.1132°N, 99.7492°W)
Time: 12:26:17
(UTC-05:00)
Language:

SL-16 R/B - Orbit

View from above orbital plane
View from above orbital plane
View from above satellite
View from above satellite

Ground track
Ground track

The orbit data is extracted from the following two-line orbital elements,

1 27006U 01056F   16121.45038899 -.00000044  00000-0 -13948-5 0  9994
2 27006  99.2517 270.6792 0013872 308.2242 118.4157 13.70970017719947
Epoch (UTC): 30 April 2016 10:48:33
Eccentricity: 0.0013872
inclination: 99.2517°
perigee height: 986 km
apogee height: 1006 km
right ascension of ascending node: 270.6792°
argument of perigee: 308.2242°
revolutions per day: 13.70970017
mean anomaly at epoch: 118.4157°
orbit number at epoch: 71994

The dashed part of the orbit path shows where the satellite is in the earth's shadow,  

DLR